sat.trackr.live / text

‹ back to catalog

KUIPER-00121

NORAD 65950 · 2025-228D

PAYLOAD ACTIVE UNKNOWN

§ Identity

Operator
Country
US
Launch date
2025-10-14
Launch site
AFETR
Launch vehicle
Mass (kg)
RCS (m²)

External: N2YO · Heavens-Above · Gunter

§ Orbital elements

Epoch: 2026-09-20T06:58:33.754080Z

Period
97.30 min
Inclination
51.9009°
Eccentricity
0.0000922
Mean motion
14.79927004 rev/d
Perigee alt
628.9 km
Apogee alt
630.2 km
Semi-major
7,007.7 km
B*
6.2819e-5
RAAN
212.5571°
Arg perigee
67.5641°
Mean anomaly
292.5419°
Rev number
5,215

§ Raw data

KUIPER-001211 65950U 25228D   26263.29066845  .00000258  00000+0  62819-4 0  99972 65950  51.9009 212.5571 0000922  67.5641 292.5419 14.79927004 52154

JSON: /api/v1/satellites/65950 · /tle

For live sub-satellite position, see the globe view (requires WebGL).

§ Visibility from observer

Set your observer location to see the next 7 days of passes ≥ 10°. The values pass through the URL so the page stays shareable.

No JS? Fill the form by hand. The geolocation button needs JavaScript.